Погода в Тернополе

Хотите узнать прогноз погоды в Тернополе? Тогда Вам сюда: Погода в Тернополе

Поиск расширенной информации на нашем сайте:

Полезная информация:

Новости сайта



02.01.2020
Опубликован Долгосрочный прогноз погоды по городам России и ближнего зарубежья на январь 2020 года.
Карты: Прогноз на январь и февраль 2020 года, Сравнение прогнозируемой аномалии приземной температуры воздуха на январь 2020 года по разным моделям.




Погода в Тернополе - сегодня

Время (UTC), дата Ветер
(°,м/с) 
Видим.   Явления Облачность Т
(°С)
Тd
(°С)
f(%) Тe
(°С)
Pmin
(гПа)
dP
(гПа)
Po
(мм)
O2
(г/м3)
Тmin Tmax R s Состояние
почвы
09 04.06.20 210 (ЮЗ) 10 км    8/8 1000 м кучево-дожд. 
[Cb calv]
+15 +8.2 64 +14  1003.7  -0.1  724  275           
12 04.06.20 210 (ЮЗ) 20000 м    6/4 1000 м средняя 
[Cu med, cong|Ac cuf]
+18 +7.8 51 +18  1002.7  -0.6  724  272           
15 04.06.20 220 (ЮЗ) 20000 м    9/8 1000 м кучево-дожд., средняя 
[Cb cap|Ac cuf]
+17.7 +9.2 57 +18  1002  -0.7  723  272           
18 04.06.20 200 (Ю) 20000 м  в посл. час ливневой дождь  9/8 1000 м кучево-дожд., средняя, верхняя 
[Cb cap|Ac cuf|Ci fib]
+14.4 +9.9 74 +16  1002.9  0.5  724  275    +18.9  0.0     
21 04.06.20 180 (Ю) 10 км    9/3 1500 м средняя, верхняя 
[Sc diur, vesp|Ac As|Cs]
+11.6 +10.1 90 +13  1003.3  724  278           
00 05.06.20 170 (Ю) 10 км    9/4 1500 м верхняя 
[Sc diur, vesp|Cs]
+11.4 +10.4 94 +13  1002.4  -0.9  723  278           
03 05.06.20 170 (Ю) 10 км    9/3 1500 м средняя, верхняя 
[Sc diur, vesp|Ac As|Ci]
+11.5 +10.5 94 +14  1002.6  0.2  723  278           
06 05.06.20 180 (Ю) 10 км  слаб. ливневой дождь  10/8 1000 м кучево-дожд., средняя 
[Cb cap|As op]
+14.2 +12.6 90 +20  1003.3  1.1  724  275  +10.9    0.6     
09 05.06.20 190 (Ю) 10 км  слаб. ливневой дождь  9/8 1000 м кучево-дожд., средняя, верхняя 
[Cb cap|Ac trans|Ci fib]
+17.6 +13.4 76 +24  1003.7  0.8  725  272           
12 05.06.20 190 (Ю) 10 км  {ливн. осадки}  8/4 1000 м верхняя 
[Sc|Ci fib]
+21.7 +12.3 55 +27  1003.4  0.2  725  268      0.0     
15 05.06.20 160 (Ю) 10 км    9/4 1000 м верхняя 
[Sc|Ci fib]
+22.3 +13.3 57 +29  1002.9  -0.4  724  267           
18 05.06.20 170 (Ю) 10 км    9/5 1000 м средняя, верхняя 
[Sc|Ac trans|Ci fib]
+20.1 +14.5 70 +29  1003.6  0.4  725  269      0.0     
21 05.06.20 150 (ЮВ) 10 км    9/5 1000 м средняя 
[Sc|Ac trans]
+15.9 +13.1 83 +23  1004.7  0.5  725  273           
00 06.06.20 320 (СЗ) 10 км    8/0 средняя, верхняя 
[Ac trans|Ci fib]
+15.8 +12.6 81 +23  1005.5  0.8  726  274           
03 06.06.20 тихо ()   10 км    9/5 1000 м кучево-дожд., средняя 
[Cb cap|Ac trans]
+14.8 +12.6 87 +20  1007.1  1.4  727  275           
06 06.06.20 220 (ЮЗ) 10 км  {ливн. осадки}  9/4 1000 м средняя 
[Sc|Ac trans]
+18.4 +13.7 74 +26  1008.9  2.2  728  272  +14.4    0.0     
09 06.06.20 280 (З) 20000 м    9/6 1000 м средняя 
[Cu med, cong|Ac trans]
+22.4 +14 59 +30  1009.1  0.7  729  269           
12 06.06.20 190 (Ю) 20000 м    8/6 1000 м верхняя 
[Cu hum|Ci fib]
+24.2 +13.4 51 +31  1009.6  0.7  729  267           
15 06.06.20 190 (Ю) 20000 м    3/3 1000 м 
[Cu hum]
+24.5 +12.9 48 +30  1009.1  -0.5  729  267           
18 06.06.20 тихо ()   20000 м    6/3 1000 м средняя 
[Cu hum|Ac trans]
+22.1 +15.3 65 +32  1009.5  0.2  729  269    +24.8       
21 06.06.20 тихо ()   10 км    9/4 1500 м средняя 
[Sc|Ac trans]
+19.5 +15.1 76 +29  1010.3  0.4  730  271           
00 07.06.20 010 (С) 2-32{32}  10 км  слаб. ливневой дождь, в посл. час гроза  9/6 1000 м кучево-дожд., средняя 
[Cb cap|Ac trans]
+17.8 +15.3 85 +29  1010  -0.5  729  273         
03 07.06.20 060 (СВ) 10 км    6/6 1000 м 
[Sc]
+16.8 +15.4 91 +28  1010.1  729  273           
06 07.06.20 140 (ЮВ) 10 км    8/8 1000 м средняя 
[Sc|Ac trans]
+19.3 +13.8 70 +27  1010.3  0.5  730  272  +16.7      затоплена
водой 
09 07.06.20 110 (В) 20000 м    6/0 средняя, верхняя 
[Ac trans|Ci fib]
+23.5 +15.6 61 +34  1010  0.2  730  267           
Время (UTC), дата Ветер
(°,м/с) 
Видим.   Явления Облачность Т
(°С)
Тd
(°С)
f(%) Тe
(°С)
Pmin
(гПа)
dP
(гПа)
Po
(мм)
O2
(г/м3)
Тmin Tmax R s Состояние
почвы

Для получения пояснительной информации подведите курсор к названию столбца.

ПОГОДА в Тернополе - архив

Всё, что Вы хотите узнать о погоде в Тернополе - удобно и подробно!

Выберите нужную дату (начиная с 1 января 2019* года) и нажмите кнопку "Найти".
Будут отображены архивные сводки погоды по пункту Тернополь, начиная с указанной даты.


Отображать данные в формате CSV (для использования в таблицах Excel)


Внимание! Наш архив погоды предназначен исключительно для личного некоммерческого использования в познавательных целях. Если Вам необходимы официальные справки о состоянии погоды (для производственных, юридических, коммерческих и т.п. целей), обращайтесь в органы Росгидромета.

*Примечание: данная дата относится к архиву по метеостанциям СССР (Россия, СНГ, Балтия).
Архив по метеостанциям Зарубежной Европы и Азии (кроме Китая) хранится 10 дней, по другим регионам земного шара (Китай, Африка, Америка, Австралия, Океания) - 1 день.

Тернополь - район местоположения метеостанции


Название, широта, долгота, высота метеостанции:
Тернополь 49.5°ш. 25.7°д. 329 м над ур. моря [Украина]

Дополнительная информация

В oтличие oт бoльшинства пoгoдных сайтoв мы публикуем пoдрoбную метеoинфoрмацию в детальнoм прoфессиoнальнoм фoрмате.

Характеристики температуры и влажнoсти вoздуха измеряются на высoте 2 м в тени вдали oт зданий и деревьев.
Скoрoсть ветра измеряется на высoте 10 м (на урoвне рoста челoвека скoрoсть ветра ниже в 1.5-2 раза). Если метеoстанция нахoдится в гoрoде или в лесу, тo скoрoсть ветра занижена на 2-4 м/с пo сравнению с oткрытым местoм. Скoрoсть ветра над акватoриями крупных рек и oзёр, а также на вершинах хoлмoв на 2-5 м/с выше, чем в oбычных услoвиях.
Атмoсфернoе давление в разных тoчках местнoсти мoжет значительнo oтличаться oт давления на метеoстанции, в зависимoсти oт услoвий рельефа (при пoдъёме на 10 м давление пoнижается примернo на 1 мм рт.ст.).